Home > Weather > Gibraltar > Past weeks

Flag for Gibraltar Past Weather in Gibraltar, Gibraltar — Yesterday and Last 2 Weeks

Now
66 °F

Passing clouds.


Feels Like: 66 °F
Forecast: 62 / 73 °F
Wind: 13 mph from West

Location: Gibraltar Airport

Current Time: May 25, 2016 at 11:16:07 AM

Latest Report: May 25, 2016 at 9:50 AM


Visibility: N/A

Pressure: 29.92 "Hg

Humidity: 78%

Dew Point: 59 °F

Location of GibraltarLocation

Past Weather in Gibraltar — Graph

°F

Gibraltar Temperature Yesterday

Maximum temperature yesterday: 77 °F (at 6:50 PM)
Minimum temperature yesterday: 64 °F (at 3:50 AM)
Average temperature yesterday: 68 °F

High & Low Weather Summary for the Past Weeks

 TemperatureHumidityPressure
High81 °F (May 19, 3:50 PM)100% (May 20, 7:50 AM)30.18 "Hg (May 20, 7:50 AM)
Low55 °F (May 11, 12:50 AM)43% (May 14, 3:50 PM)29.71 "Hg (May 10, 9:50 AM)
Average66 °F74%30.01 "Hg
* Reported May 10 9:50 AM — May 25 9:50 AM, Gibraltar, Weather by CustomWeather, © 2016

Note: Actual official high and low records may vary slightly from our data, if they occured in-between our weather recording intervals... More about our weather records

Advertising

Gibraltar Weather History for the Previous 24 Hours

Scroll right to see more
 ConditionsComfort  
Time TempWeatherWind HumidityBarometerVisibility
9:50 AM
Wed, May 25
66 °FPassing clouds.13 mph78%29.92 "HgN/A
8:50 AM64 °FPassing clouds.13 mph83%29.92 "HgN/A
7:50 AM64 °FPassing clouds.13 mph83%29.92 "HgN/A
6:50 AM63 °FPassing clouds.13 mph88%29.92 "HgN/A
5:50 AM63 °FClear.17 mph88%29.92 "HgN/A
4:50 AM64 °FClear.18 mph83%29.92 "HgN/A
3:50 AM64 °FClear.20 mph83%29.92 "HgN/A
2:50 AM66 °FClear.26 mph78%29.92 "HgN/A
1:50 AM66 °FClear.17 mph83%29.92 "HgN/A
12:50 AM68 °FClear.10 mph78%29.95 "HgN/A
11:50 PM
Tue, May 24
68 °FClear.10 mph78%29.92 "HgN/A
10:50 PM68 °FClear.18 mph73%29.89 "HgN/A
9:50 PM70 °FSunny.17 mph73%29.89 "HgN/A
8:50 PM72 °FSunny.13 mph69%29.86 "Hg10 mi
7:50 PM77 °FSunny.8 mph57%29.86 "Hg10 mi
6:50 PM77 °FSunny.2 mph61%29.86 "Hg10 mi
5:50 PM72 °FSunny.5 mph65%29.89 "Hg10 mi
4:50 PM73 °FSunny.5 mph57%29.89 "Hg10 mi
3:50 PM70 °FSunny.10 mph69%29.92 "Hg10 mi
2:50 PM68 °FSunny.8 mph73%29.95 "Hg10 mi
1:50 PM70 °FPartly sunny.8 mph69%29.98 "HgN/A
12:50 PM68 °FScattered clouds.8 mph73%29.98 "HgN/A
11:50 AM66 °FPartly sunny.9 mph83%30.01 "Hg6 mi
Weather by CustomWeather, © 2016

See weather overviewHow to use our weather pages